Location: Malvern Link
(52.1333°N, 2.3000°W)
Time: 23:11:14
(UTC+00:00)

DIWATA 2B (PO-101) - Pass Details

Date: 26 June 2022
Orbit: 583 x 599 km, 98.0° (Epoch: 07 August)

Event Time Altitude Azimuth Distance (km) Brightness Sun altitude
Exits shadow 00:56:58 - 133° (SE) 2,398 ? -13.9°
Reaches altitude 10° 00:58:11 10° 126° (SE) 1,938 ? -13.8°
Maximum altitude 01:01:53 31° 64° (ENE) 1,059 ? -13.7°
Drops below altitude 10° 01:05:38 10° 3° (N) 1,954 ? -13.6°
Sets 01:07:59 0° 353° (N) 2,862 ? -13.5°
